Location: De Har
(53.3413°N, 6.6858°E)
Time: 17:26:20
(UTC+00:00)

ATLAS 3B R/B - Pass Details

Date: 22 April 2026
Orbit: 937 x 1257 km, 63.8° (Epoch: 9 May)

Event Time Altitude Azimuth Distance (km) Brightness Sun altitude
Rises 01:19:21 0° 313° (NW) 4,204 6.0 -20.6°
Reaches altitude 10° 01:22:41 10° 302° (WNW) 3,212 5.2 -20.4°
Maximum altitude 01:28:45 26° 250° (WSW) 2,174 3.9 -19.9°
Enters shadow 01:29:23 26° 242° (WSW) 2,181 3.8 -19.9°
